Showing default

LIZZIESAT, 59132

Orbit data source: Space-Track

LIZZIESAT, 59132 is a payload satellite owned by Sidus Space (US) in SSO that was launched on Mon, 04 Mar 2024 UTC via an FALCON 9 launch vehicle from the Air Force Western Test Range (AFWTR). Payload-class satellites include a variety of spacecraft equipped with specific instruments for various scientific and technological missions. These include communications satellites like Starlink; space stations such as the ISS; scientific satellites like the Hubble; Earth observation satellites from companies like Planet Labs, Umbra, and HawkEye 360; GPS; miniature CubeSats for education and research; and military/defense satellites.

Loading next visibility...
Identifier
59132, 2024-043AL
Orbit
SSO
Country
Flag of USUS
Related business
Manufacturer
Sidus Space
Mission
Operational Commercial Technology
Bus & Motor
LIZZIESAT, Unknown motor
Mass
~100 kg wet, ~100 kg dry
Launch date (UTC)
2024-03-04 (2 years ago)
Launch vehicle
FALCON 9
Launch site
Air Force Western Test Range (AFWTR)
Object type
Payload
Rocket body
Debris
Shape & HBR
Oct Cyl + 8 Pan, 0.7 m
Radar Cross Section
1.008 m², Medium (>0.1 m² and < 1m²)

Expand to show TLE details & history
Last TLE update: 1 day ago

TLE from 1 day ago
0 LIZZIESAT
1 59132U 24043AL  25259.88287259  .00004892  00000-0  20186-3 0  9998
2 59132  97.5279  28.1205 0012602 123.3311 236.9134 15.24450106 85250
Epoch: 2025-09-16T21:11Z
TLE epoch observation values (Epoch: 2025-09-16T21:11:20.191Z)
Latitude
-0.0001°
Longitude
74.21959°
Altitude
500.265 km
Speed
7.612 km/s
True Right ascension
01h 52m 28s
True Declination
0° 00' 00"
Sunlit
Object was in full shadow at epoch
Visualization orbit readout
Latitude
Unknown
Longitude
Unknown
Altitude
Unknown
Speed
Unknown
Apparent Right ascension
Unknown
Apparent Declination
Unknown
Sunlit
N/A
Visualization observer readout
Local Sidereal Time
20:50:27
Azimuth
Unknown
Elevation
Unknown
Doppler factor
Unknown
Orbital elements
Apogee altitude
498.057 km
Perigee altitude
480.748 km
Semi-major axis
6,867.539 km
Eccentricity
0.00126
Inclination
97.5279°
RAAN
28.1205°
Arg. of periapsis
123.3311°
True anomaly
236.79251°
Mean anomaly
236.9134°
Eccentric anomaly
236.85295°
Mean motion
3.81366 °/min
Orbital period
94.4 mins
BSTAR
0.00020186
Loading maneuver chart data...
Computing Atmospheric mass density...
Loading historical data...
Loading historical data...
Loading historical data...
Loading historical data...
Loading historical data...
Loading historical data...
Loading historical data...

Documentation

Showing up to 5 results
|